Regional Weather Roundup
Issued by NWS Newport/Morehead, NC

Current Version | Previous Version | Text Only | Print | Product List | Glossary On
Versions: 1 2 3 4 5 6 7 8 9 10 11 12 13 14 15 16 17 18 19 20 21 22 23 24 25 26 27 28 29 30 31 32 33 34 35 36 37 38 39 40 41 42 43 44 45 46 47 48 49 50
000 ASUS42 KMHX 291913 RWRMHX WEATHER ROUNDUP FOR EASTERN NORTH CAROLINA NATIONAL WEATHER SERVICE NEWPORT/MOREHEAD CITY NC 300 PM EDT MON AUG 29 2016 NOTE: "FAIR" INDICATES FEW OR NO CLOUDS BELOW 12,000 FEET WITH NO SIGNIFICANT WEATHER AND/OR OBSTRUCTIONS TO VISIBILITY NCZ015>017-031-032-045>047-102-103-292000- NORTH COAST CITY SKY/WX TMP DP RH WIND PRES REMARKS EDENTON PTSUNNY 86 73 63 NE12G17 30.09F ELIZABETH CITY CLOUDY 82 75 79 NE10 30.08F KITTY HAWK CLOUDY 87 77 73 NE9 30.07F MANTEO PTSUNNY 83 74 75 E14G24 30.08F $$ NCZ045>047-081-094-103-104-292000- CENTRAL COAST CITY SKY/WX TMP DP RH WIND PRES REMARKS FRISCO CLOUDY 85 77 77 NE9G22 30.05F $$ NCZ095-097-098-100-101-292000- SOUTHERN COAST CITY SKY/WX TMP DP RH WIND PRES REMARKS BEAUFORT MOSUNNY 90 73 57 N14G20 30.04F CEDAR ISLAND NOT AVBL JACKSONVILLE PTSUNNY 82 70 66 E20 30.05F PINEY ISLAND NOT AVBL WILMINGTON PTSUNNY 88 74 63 N14 30.05F $$ NCZ011>013-027>030-043-044-078>080-089-090>093-098-292000- COASTAL PLAIN CITY SKY/WX TMP DP RH WIND PRES REMARKS AHOSKIE MOSUNNY 88 69 53 N9 30.08F CLINTON MOSUNNY 88 74 63 NE6 30.07F ELIZABETHTOWN CLOUDY 87 67 52 N6 30.07F GOLDSBORO MOSUNNY 91 72 53 VRB6 30.06F GREENVILLE MOSUNNY 91 73 55 N8 30.08F HX 100 HAVELOCK PTSUNNY 87 74 64 N10 30.06F KENANSVILLE MOSUNNY 88 73 62 N5 30.07F KINSTON PTSUNNY 88 75 66 NW7 30.07F NEW BERN PTSUNNY 85 73 67 N10 30.06F RICHLANDS MOSUNNY 87 76 69 N8 30.06F ROCKY MOUNT MOSUNNY 90 71 53 N8 30.09F WASHINGTON MOSUNNY 84 73 69 N12G18 30.07F WHITEVILLE CLOUDY 87 71 58 NE9 30.06F $$ AMZ130-135-150-152-154-156-158-170-250-252-270-ANZ085-086-088-633-658-670-292000- MARINE OBSERVATIONS STATION/POSITION TIME TEMP WIND PRES WAVE SWELL AIR SEA DIR/SP/G HT/PER HT/PER (UTC) (F) (DEG/KT/KT) (MB) (FT/S) (FT/S) CHESAPEAKE LIGHT NOT AVBL 64 E VA BEACH 1850 79 81 40/ 12/ 14 1018.1 5/13 3/13 DUCK 1800 79 79 30/ 18/ 19 1018.5 2 E DUCK 1811 81 N/A 4/13 2/13 OREGON INLET 1800 82 81 30/ 17/ 21 1018.5 13E OREGON INLT 1900 81 N/A 6/13 3/13 HATTERAS CG 1800 83 83 20/ 16/ 20 1017.7 DIAMOND BUOY 1850 83 84 40/ 16/ 17 1017.1 6/ 8 5/ 8 CAPE LOOKOUT 1900 84 30/ 13/ 15 1017.2 BEAUFORT LAB 1800 88 82 40/ 3/ 11 1017.5 30 SE NEW RVR IN 1808 84 84 60/ 14/ 17 1017.8 30 SE NEW RVR IN 1825 84 N/A 4/ 8 2/13 27 SE WRIGHTSVLE 1808 83 83 360/ 10/ 16 1018.3 5 SE WRIGHTSVLE 1808 83 84 40/ 8/ 12 1019.1 225 S CAPE HAT 1850 83 85 280/ 10/ 10 1015.9 4/13 5/13 41 SE CHARLESTON 1850 83 85 60/ 10/ 10 1016.7 3/13 3/13 $$

USA.gov is the U.S. government's official web portal to all federal, state and local government web resources and services.